#timestamp,LO_Frequency,Hit 
1497790815.3,286048438.1,N
1497790835.1,286048440.4,N
1497790855.9,286048440.6,N
1497790875.7,286048438.6,N
1497790895.5,286048441.2,N
1497790915.4,286048440.3,N
1497790935.2,286048440.5,N
1497790955.1,286048441.2,N
1497790956.0,286048441.2,N
1497790975.8,286048440.1,N
1497790995.6,286048439.7,N
1497791015.5,286048438.6,N
1497791035.3,286048441.2,N
1497791055.1,286048440.5,N
1497791075.9,286048440.6,N
1497791095.7,286048440.0,N
1497791115.6,286048440.6,N
1497791135.4,286048440.3,N
1497791155.2,286048441.0,N
1497791175.1,286048442.1,N
1497791176.0,286048442.1,N
1497791195.8,286048440.1,N
1497791215.7,286048438.1,N
1497791235.5,286048440.8,N
1497791255.3,286048440.6,N
1497791275.2,286048440.5,N
1497791295.9,286048440.0,N
1497791315.7,286048442.1,N
1497791335.6,286048441.3,N
1497791355.4,286048440.0,N
1497791375.3,286048438.3,N
1497791395.1,286048440.4,N
1497791396.0,286048440.4,N
1497791415.8,286048442.6,N
1497791435.7,286048442.5,N
1497791455.5,286048438.1,N
1497791475.3,286048440.9,N
1497791495.2,286048441.0,N
1497791515.0,286048440.5,N
1497791515.9,286048440.5,N
1497791535.8,286048442.8,N
1497791555.6,286048442.0,N
1497791575.4,286048444.4,N
1497791595.3,286048442.7,N
1497791615.1,286048440.6,N
1497791635.8,286048440.4,N
1497791655.7,286048442.5,N
1497791675.5,286048441.6,N
1497791695.4,286048439.7,N
1497791715.2,286048442.7,N
1497791735.0,286048440.9,N
1497791735.9,286048440.9,N
1497791755.8,286048440.3,N
1497791775.6,286048442.2,N
1497791795.4,286048441.8,N
1497791815.3,286048442.6,N
1497791835.1,286048439.8,N
1497791855.9,286048439.9,N
1497791875.7,286048441.0,N
1497791895.5,286048440.1,N
1497791915.4,286048441.5,N
1497791935.2,286048442.4,N
1497791955.0,286048439.8,N
1497791956.0,286048439.8,N
1497791975.8,286048442.3,N
1497791995.6,286048442.4,N
1497792015.5,286048440.0,N
1497792035.3,286048442.3,N
1497792055.1,286048442.6,N
1497792075.9,286048442.4,N
1497792095.7,286048442.3,N
1497792145.6,286048442.6,Y
1497792155.5,286047803.6,N
1497792175.3,286046999.5,N
1497792195.2,286046996.9,N
1497792215.0,286046998.8,N
1497792215.9,286046998.8,N
1497792235.7,286046999.4,N
1497792255.6,286046997.0,N
1497792275.4,286046997.0,N
1497792295.3,286046998.4,N
1497792315.1,286046999.0,N
1497792316.0,286046999.0,N
1497792335.8,286047000.5,N
1497792355.7,286047000.7,N
1497792375.5,286046998.4,N
1497792395.3,286046998.2,N
1497792415.2,286047000.1,N
1497792435.0,286047001.5,N
1497792435.9,286047001.5,N
1497792455.8,286047001.6,N
1497792475.6,286047000.7,N
1497792495.4,286046998.8,N
1497792515.3,286046998.6,N
1497792535.1,286047000.4,N
1497792555.9,286046998.6,N
1497792575.7,286046999.9,N
1497792595.5,286046998.4,N
1497792615.4,286046998.1,N
1497792635.2,286047001.0,N
1497792655.0,286046999.8,N
1497792655.9,286046999.8,N
1497792675.8,286046999.6,N
1497792695.6,286046996.9,N
1497792715.5,286046996.7,N
1497792735.3,286046999.0,N
1497792755.1,286046998.3,N
1497792775.9,286046998.9,N
1497792795.7,286046998.9,N
1497792815.6,286046999.5,N
1497792835.4,286046999.1,N
1497792855.2,286046998.5,N
1497792875.1,286046998.7,N
1497792876.0,286046998.7,N
1497792895.8,286046998.8,N
1497792915.6,286047001.2,N
1497792935.5,286046999.5,N
1497792955.3,286046999.6,N
1497792975.2,286046998.8,N
1497792995.9,286046998.1,N
1497793015.7,286046996.5,N
1497793035.6,286046998.5,N
1497793055.4,286046998.1,N
1497793075.2,286046996.6,N
1497793095.1,286046997.0,N
1497793096.0,286046997.0,N
1497793115.8,286046999.6,N
1497793135.7,286046996.8,N
1497793155.5,286046999.1,N
1497793175.3,286046998.3,N
1497793195.2,286046998.3,N
1497793215.0,286046996.8,N
1497793215.9,286046996.8,N
1497793235.7,286046998.9,N
1497793255.6,286046998.2,N
1497793275.4,286046998.3,N
1497793295.3,286046998.6,N
1497793315.1,286046998.6,N
1497793316.0,286046998.6,N
1497793335.8,286047000.8,N
1497793355.7,286046998.9,N
1497793375.5,286047000.5,N
1497793395.3,286047000.9,N
1497793415.2,286046998.7,N
1497793435.0,286046998.8,N
1497793435.9,286046998.8,N
1497793455.8,286047000.3,N
1497793475.6,286046998.9,N
1497793495.4,286046998.7,N
1497793515.3,286047001.2,N
1497793535.1,286047000.7,N
1497793555.8,286046999.9,N
1497793575.7,286047000.1,N
1497793595.5,286047002.4,N
1497793615.4,286047001.2,N
1497793635.2,286047000.9,N
1497793655.0,286047000.3,N
1497793655.9,286047000.3,N
1497793675.8,286046998.2,N
1497793695.6,286046998.8,N
1497793715.5,286042159.8,Y
1497793735.3,286047185.7,N
1497793755.1,286047186.1,N
1497793775.9,286047183.8,N
1497793795.7,286047187.9,N
1497793815.5,286047187.2,N
1497793835.4,286047187.9,N
1497793855.2,286047184.9,N
1497793875.1,286047184.4,N
1497793876.0,286047184.4,N
1497793895.8,286047186.1,N
1497793915.6,286047185.9,N
1497793935.5,286047184.3,N
1497793955.3,286047184.6,N
1497793975.1,286047186.2,N
1497793995.9,286047188.3,N
1497794015.7,286047188.1,N
1497794035.6,286047185.5,N
1497794055.4,286047185.5,N
1497794075.2,286047185.3,N
1497794095.1,286047186.6,N
1497794096.0,286047186.6,N
1497794115.8,286047185.9,N
1497794135.7,286047187.0,N
1497794155.5,286047187.0,N
1497794175.3,286047185.7,N
1497794195.2,286047186.4,N
1497794215.0,286047184.0,N
1497794215.9,286047184.0,N
1497794235.7,286047184.4,N
1497794255.6,286047185.6,N
1497794275.4,286047185.8,N
1497794295.3,286047188.0,N
1497794315.1,286047185.8,N
1497794316.0,286047185.8,N
1497794335.8,286047186.8,N
1497794355.7,286047186.2,N
1497794375.5,286047187.9,N
1497794395.3,286047187.7,N
